Location: Caltech
(34.1382°N, 118.1253°W)
Time: 08:30:45
(UTC-07:00)

KITSAT 1 - Visible Passes

Search period start: 01 May 2016 00:00
Search period end: 11 May 2016 00:00
Orbit: 1305 x 1326 km, 66.1° (Epoch: 30 April)

Date Brightness Start Highest point End Pass type
(mag) Time Alt. Az. Time Alt. Az. Time Alt. Az.
01 May 12.7 01:56:50 10° N 02:01:12 15° NE 02:05:33 10° ENE visible
01 May 10.5 03:50:05 10° NNW 03:58:11 69° ENE 04:06:12 10° SE visible
01 May 12.7 20:11:41 10° W 20:17:47 23° NW 20:23:56 10° N visible
02 May 12.3 02:11:59 10° N 02:17:58 22° NE 02:23:54 10° E visible
02 May 10.1 04:06:08 10° NNW 04:14:16 82° WSW 04:22:20 10° SSE visible
02 May 12.9 20:29:56 10° WNW 20:34:31 16° NW 20:39:08 10° N visible
03 May 11.7 02:27:29 10° N 02:34:32 31° NE 02:41:30 10° ESE visible
03 May 10.3 04:22:22 10° NW 04:30:13 55° WSW 04:38:00 10° S visible
03 May 13.2 20:49:44 10° NW 20:51:27 11° NNW 20:53:11 10° NNW visible
04 May 11.1 02:43:11 10° NNW 02:50:55 45° NE 02:58:33 10° SE visible
04 May 10.7 04:38:54 10° NW 04:46:03 36° WSW 04:53:10 10° S visible
05 May 12.6 01:05:54 10° N 01:10:07 15° NE 01:14:18 10° ENE visible
05 May 10.5 02:59:03 10° NNW 03:07:09 67° ENE 03:15:08 10° SE visible
05 May 11.2 04:55:54 10° WNW 05:01:47 23° WSW 05:07:39 10° SSW visible
06 May 12.2 01:21:00 10° N 01:26:53 21° NE 01:32:43 10° E visible
06 May 10.1 03:15:05 10° NNW 03:23:14 85° WSW 03:31:18 10° SSE visible
06 May 11.6 05:14:05 10° WNW 05:17:24 13° W 05:20:43 10° SW visible
07 May 11.7 01:36:29 10° N 01:43:27 30° NE 01:50:22 10° ESE visible
07 May 10.2 03:31:19 10° NW 03:39:12 57° WSW 03:42:42 34° S visible
08 May 11.1 01:52:10 10° NNW 01:59:51 44° NE 02:04:14 25° ESE visible
08 May 10.6 03:47:50 10° NW 03:55:02 37° WSW 03:56:04 36° WSW visible
09 May 12.5 00:14:58 10° N 00:19:01 14° NE 00:23:02 10° ENE visible
09 May 10.4 02:08:01 10° NNW 02:16:06 65° ENE 02:18:17 48° ESE visible
09 May 11.2 04:04:47 10° NW 04:10:09 23° W 04:10:09 23° W visible
10 May 12.1 00:30:01 10° N 00:35:48 21° NE 00:40:50 12° E visible
10 May 10.0 02:24:02 10° NNW 02:32:12 87° WSW 02:32:43 80° S visible
10 May 11.8 04:22:47 10° WNW 04:24:37 13° W 04:24:37 13° W visible
